Weather in Kez

Russia / Udmurt Republic     57°53′43″N   53°42′42″E
temp.,
°C
wind,
m/s
gust,
m/s
humid.,
%
clouds,
%
prec.,
mm/h
press.,
hPa
HPBL,
m
27 january, wed
wed2701:00−4ssw4895100 0.1 1024410
04:00−11ssw389797 0.1 1024241
07:00−11s2797100 0.1 1025235
10:00−8ssw3794100 0.3 1024322
13:00−3s4993100 0.1 1024444
16:00−2ssw51192100 0.1 1022756
19:00−2s51291100 0.1 1021793
22:00−3ssw51192100 0.1 1019747
28 january, thu
thu2801:00−5ssw51292100 0.1 1019683
04:00−5ssw61393100 0.4 1018545
07:00−5ssw61394100 2.6 1017603
10:00−5sw51195100 4.4 1017627
13:00−4sw4995100 2.1 1018534
16:00−3sw4896100 3.0 1018497
19:00−4ssw3796100 0.6 1020330
22:00−5s3795100 1.1 1020309
29 january, fri
fri2901:00−8s2696100 0.0 1021201
04:00−9s2696100 0.0 1020165
07:00−10sse2696100 0.0 1020154
10:00−10sse3795100 0.0 1019204
13:00−7se3691100 0.0 1018265
16:00−7ese3792100 0.0 1016265
19:00−7ese41091100 0.0 1014297
22:00−5ese41186100 0.0 1012318
30 january, sat
sat3001:00−4se41289100 0.0 1010603
04:00−4sse41095100 1.7 1010648
07:00−6sse41094100 0.3 1010450
10:00−5sse4992100 0.4 1010531
13:00−4sse4994100 0.1 1010539
16:00−4sse51193100 0.1 1009574
19:00−3sse61494100 0.3 1007809
22:00−2s61394100 0.7 1007933
31 january, sun
sun3101:00−2s51294100 0.4 1007735
04:00−2s51194100 0.5 1008741
07:00−4s41194100 0.1 1009529
10:00−3s41192100 0.1 1010686
13:00−2s51188100 0.0 1009823
16:00−1s71395100 1.4 10061017
19:000ssw71397100 1.9 10051101
22:000ssw61391100 2.4 10051026